Weather History for KGUC - May, 2013

Change the Weather History Date:

Sunday, May 19, 2013

  Actual Average (KASE) Record (KASE)
Temperature  
Mean Temperature 43 °F 49 °F  
Max Temperature 51 °F 64 °F - ()
Min Temperature 33 °F 35 °F - ()
Degree Days  
Heating Degree Days 22 16  
Month to date heating degree days 348  
Since 1 July heating degree days 8478  
Cooling Degree Days 0 0  
Month to date cooling degree days 0  
Year to date cooling degree days 0  
Moisture  
Dew Point 31 °F    
Average Humidity 73    
Maximum Humidity 93    
Minimum Humidity 41    
Precipitation  
Precipitation 0.10 in 0.04 in - ()
Month to date precipitation 1.09  
Year to date precipitation 6.49  
Sea Level Pressure  
Sea Level Pressure 30.08 in    
Wind  
Wind Speed 5 mph (NW)    
Max Wind Speed 18 mph    
Max Gust Speed 29 mph    
Visibility 10 miles    
Events Thunderstorm    
T = Trace of Precipitation, MM = Missing Value Source: NWS Daily Summary

Daily Weather History Graph

Daily Weather History Graph

Search for Another Location

Airport or City:

Trip Planner

Search our weather history database for the weather conditions in past years. The results will help you decide how hot, cold, wet, or windy it might be!

Date:

Astronomy

May. 19, 2013 Rise Set
Actual Time 5:52 AM MDT 8:16 PM MDT
Civil Twilight 5:22 AM MDT 8:46 PM MDT
Nautical Twilight 4:45 AM MDT 9:23 PM MDT
Astronomical Twilight 4:04 AM MDT 10:05 PM MDT
Moon 2:27 PM MDT (5/19) 2:13 AM MDT (5/19)
Length of Visible Light 15h 24m
Length of Day
14h 23m
Waxing Gibbous, 66% of the Moon is Illuminated
May 19
Waxing Gibbous
May 24
Full
May 31
Last Quarter
Jun 8
New
Jun 16
First Quarter

Hourly Weather History & Observations

Time (MDT) Temp. Windchill Dew Point Humidity Pressure Visibility Wind Dir Wind Speed Gust Speed Precip Events Conditions
12:15 AM 39.2 °F 35.0 °F 30.2 °F 70% 30.10 in 10.0 mi NNW 5.8 mph - N/A   Partly Cloudy
12:35 AM 39.2 °F 35.9 °F 30.2 °F 70% 30.09 in 10.0 mi North 4.6 mph - N/A   Mostly Cloudy
12:55 AM 37.4 °F 33.8 °F 28.4 °F 70% 30.10 in 10.0 mi SSE 4.6 mph - N/A   Partly Cloudy
1:15 AM 35.6 °F 32.8 °F 28.4 °F 75% 30.09 in 10.0 mi South 3.5 mph - N/A   Partly Cloudy
1:35 AM 37.4 °F 33.8 °F 30.2 °F 75% 30.09 in 10.0 mi SSW 4.6 mph - N/A   Scattered Clouds
1:55 AM 37.4 °F - 30.2 °F 75% 30.08 in 10.0 mi Calm Calm - N/A   Partly Cloudy
2:15 AM 35.6 °F - 30.2 °F 81% 30.08 in 10.0 mi Calm Calm - N/A   Clear
2:55 AM 37.4 °F - 30.2 °F 75% 30.08 in 10.0 mi Calm Calm - N/A   Scattered Clouds
3:15 AM 37.4 °F - 30.2 °F 75% 30.09 in 10.0 mi Calm Calm - N/A   Mostly Cloudy
3:35 AM 37.4 °F - 30.2 °F 75% 30.10 in 10.0 mi Calm Calm - N/A   Overcast
3:55 AM 37.4 °F 32.1 °F 30.2 °F 75% 30.09 in 8.0 mi NE 6.9 mph - 0.01 in   Overcast
4:15 AM 35.6 °F 31.7 °F 30.2 °F 81% 30.08 in 10.0 mi East 4.6 mph - N/A   Mostly Cloudy
4:35 AM 35.6 °F - 32.0 °F 87% 30.08 in 10.0 mi Calm Calm - N/A   Partly Cloudy
4:55 AM 35.6 °F 30.7 °F 30.2 °F 81% 30.07 in 10.0 mi NNW 5.8 mph - N/A   Clear
5:15 AM 35.6 °F 32.8 °F 32.0 °F 87% 30.07 in 10.0 mi NW 3.5 mph - N/A   Scattered Clouds
5:35 AM 35.6 °F 31.7 °F 32.0 °F 87% 30.07 in 10.0 mi NNW 4.6 mph - N/A   Overcast
6:15 AM 35.6 °F 31.7 °F 32.0 °F 87% 30.07 in 10.0 mi NNW 4.6 mph - N/A   Overcast
6:35 AM 35.6 °F 32.8 °F 32.0 °F 87% 30.07 in 10.0 mi NNW 3.5 mph - N/A   Overcast
6:55 AM 35.6 °F 31.7 °F 33.8 °F 93% 30.07 in 10.0 mi North 4.6 mph - N/A   Overcast
7:15 AM 37.4 °F 32.8 °F 33.8 °F 87% 30.07 in 10.0 mi NNW 5.8 mph - N/A   Overcast
7:55 AM 37.4 °F 34.9 °F 33.8 °F 87% 30.08 in 10.0 mi NW 3.5 mph - N/A   Overcast
8:15 AM 39.2 °F - 33.8 °F 81% 30.08 in 10.0 mi Calm Calm - N/A   Overcast
8:55 AM 39.2 °F 37.0 °F 33.8 °F 81% 30.08 in 10.0 mi North 3.5 mph - N/A   Mostly Cloudy
9:15 AM 42.8 °F 40.1 °F 33.8 °F 70% 30.08 in 10.0 mi NNW 4.6 mph - N/A   Mostly Cloudy
9:35 AM 42.8 °F 38.6 °F 33.8 °F 70% 30.08 in 10.0 mi WSW 6.9 mph - N/A   Overcast
9:55 AM 41.0 °F 35.2 °F 30.2 °F 65% 30.08 in 9.0 mi NW 9.2 mph - 0.01 in   Overcast
10:15 AM 39.2 °F - 33.8 °F 81% 30.07 in 10.0 mi Calm Calm - 0.01 in   Scattered Clouds
10:35 AM 42.8 °F 41.1 °F 35.6 °F 76% 30.06 in 10.0 mi North 3.5 mph - 0.01 in Thunderstorm Clear
10:55 AM 44.6 °F 42.2 °F 33.8 °F 66% 30.06 in 10.0 mi WSW 4.6 mph - 0.01 in   Mostly Cloudy
11:15 AM 44.6 °F 39.2 °F 33.8 °F 66% 30.05 in 10.0 mi WNW 10.4 mph - N/A   Overcast
11:35 AM 46.4 °F 42.9 °F 33.8 °F 62% 30.05 in 10.0 mi East 6.9 mph - N/A   Scattered Clouds
11:55 AM 48.2 °F - 28.4 °F 46% 30.04 in 10.0 mi WNW 6.9 mph - N/A   Mostly Cloudy
12:15 PM 48.2 °F - 28.4 °F 46% 30.04 in 10.0 mi SW 10.4 mph 19.6 mph N/A   Mostly Cloudy
12:35 PM 51.8 °F - 28.4 °F 41% 30.05 in 10.0 mi NNE 13.8 mph 21.9 mph N/A   Mostly Cloudy
1:15 PM 44.6 °F 36.9 °F 33.8 °F 66% 30.05 in 10.0 mi NNE 18.4 mph 25.3 mph N/A   Mostly Cloudy
1:35 PM 46.4 °F 41.1 °F 30.2 °F 53% 30.05 in 10.0 mi NNE 11.5 mph 18.4 mph N/A Thunderstorm Mostly Cloudy
2:15 PM 42.8 °F 36.2 °F 28.4 °F 57% 30.08 in 6.0 mi WNW 12.7 mph 28.8 mph 0.01 in   Mostly Cloudy
2:35 PM 39.2 °F 34.2 °F 30.2 °F 70% 30.08 in 10.0 mi North 6.9 mph - 0.01 in   Overcast
2:55 PM 41.0 °F 34.7 °F 33.8 °F 76% 30.07 in 10.0 mi North 10.4 mph - 0.01 in   Overcast
3:15 PM 41.0 °F 36.4 °F 33.8 °F 76% 30.08 in 10.0 mi North 6.9 mph - N/A   Mostly Cloudy
3:35 PM 42.8 °F 39.3 °F 32.0 °F 66% 30.05 in 10.0 mi ESE 5.8 mph - N/A   Overcast
3:55 PM 44.6 °F 42.2 °F 32.0 °F 61% 30.06 in 10.0 mi SE 4.6 mph - N/A   Scattered Clouds
4:15 PM 44.6 °F 40.2 °F 30.2 °F 57% 30.07 in 10.0 mi SSW 8.1 mph - N/A   Mostly Cloudy
4:35 PM 44.6 °F 38.1 °F 30.2 °F 57% 30.07 in 10.0 mi WSW 13.8 mph 19.6 mph 0.01 in   Mostly Cloudy
4:55 PM 42.8 °F 35.8 °F 30.2 °F 61% 30.06 in 10.0 mi SW 13.8 mph - 0.01 in   Scattered Clouds
5:15 PM 41.0 °F 34.7 °F 32.0 °F 70% 30.09 in 6.0 mi West 10.4 mph - N/A   Mostly Cloudy
5:35 PM 41.0 °F - 32.0 °F 70% 30.07 in 5.0 mi Calm Calm - 0.01 in   Overcast
5:55 PM 42.8 °F 40.1 °F 32.0 °F 66% 30.07 in 10.0 mi West 4.6 mph - 0.01 in   Scattered Clouds
6:15 PM 42.8 °F 36.6 °F 33.8 °F 70% 30.07 in 10.0 mi NNW 11.5 mph 19.6 mph N/A   Mostly Cloudy
6:35 PM 42.8 °F 37.0 °F 32.0 °F 66% 30.08 in 10.0 mi WNW 10.4 mph - 0.01 in   Overcast
6:55 PM 41.0 °F 34.3 °F 32.0 °F 70% 30.10 in 9.0 mi West 11.5 mph 18.4 mph 0.03 in   Overcast
7:15 PM 39.2 °F 35.9 °F 32.0 °F 75% 30.09 in 10.0 mi South 4.6 mph - 0.01 in   Mostly Cloudy
7:35 PM 41.0 °F 37.1 °F 32.0 °F 70% 30.09 in 10.0 mi SW 5.8 mph - 0.01 in   Mostly Cloudy
7:55 PM 41.0 °F 36.4 °F 32.0 °F 70% 30.09 in 10.0 mi South 6.9 mph - 0.01 in   Scattered Clouds
8:15 PM 39.2 °F 33.0 °F 32.0 °F 75% 30.09 in 10.0 mi South 9.2 mph - N/A   Clear
8:35 PM 39.2 °F 35.0 °F 32.0 °F 75% 30.09 in 10.0 mi SSW 5.8 mph - N/A   Clear
8:55 PM 39.2 °F 35.9 °F 30.2 °F 70% 30.10 in 10.0 mi SSW 4.6 mph - N/A   Clear
9:15 PM 39.2 °F - 32.0 °F 75% 30.10 in 10.0 mi Calm Calm - N/A   Clear
9:35 PM 37.4 °F 32.8 °F 30.2 °F 75% 30.11 in 10.0 mi SSE 5.8 mph - N/A   Clear
9:55 PM 37.4 °F - 30.2 °F 75% 30.11 in 10.0 mi Calm Calm - N/A   Clear
10:15 PM 35.6 °F 30.7 °F 30.2 °F 81% 30.11 in 10.0 mi North 5.8 mph - N/A   Clear
10:35 PM 35.6 °F 29.9 °F 30.2 °F 81% 30.11 in 10.0 mi NNW 6.9 mph - N/A   Clear
10:55 PM 35.6 °F 29.9 °F 30.2 °F 81% 30.11 in 10.0 mi NNW 6.9 mph - N/A   Clear
11:15 PM 35.6 °F 32.8 °F 30.2 °F 81% 30.10 in 10.0 mi ESE 3.5 mph - N/A   Clear
11:35 PM 35.6 °F 32.8 °F 32.0 °F 87% 30.10 in 10.0 mi NNE 3.5 mph - N/A   Partly Cloudy
11:55 PM 33.8 °F - 30.2 °F 87% 30.10 in 10.0 mi Calm Calm - N/A   Partly Cloudy